Regional Weather Roundup
Issued by NWS Goodland, KS

Home | Current Version | Previous Version | Text Only | Print | Product List | Glossary Off
Versions: 1 2 3 4 5 6 7 8 9 10 11 12 13 14 15 16 17 18 19 20 21 22 23 24 25 26 27 28 29 30 31 32 33 34 35 36 37 38 39 40 41 42 43 44 45 46 47 48 49 50

000
ASUS43 KGLD 250808
RWRGLD

GOODLAND FORECAST AREA HOURLY WEATHER ROUNDUP
NATIONAL WEATHER SERVICE GOODLAND KS
200 AM MDT MON MAY 25 2015

...OFFICIAL OBSERVATIONS...

CITY           SKY/WX    TMP DP  RH WIND       PRES   REMARKS
GOODLAND KS    CLOUDY    50  49  96 S6        29.80F
HILL CITY KS   LGT RAIN  55  53  93 E14       29.72F
IMPERIAL NEB   CLOUDY    51  49  92 CALM      29.78F
MCCOOK NEB     LGT RAIN  54  53  97 W10       29.79R
AKRON CO       CLOUDY    45  44  97 W9        29.82F
BURLINGTON CO  MOCLDY    48  45  89 W8        29.81F
LIMON CO       CLEAR     41  39  93 W3        29.87S
$$

...UNOFFICIAL OBSERVATIONS...

CITY           SKY/WX    TMP DP  RH WIND       PRES   REMARKS
GOVE KS          N/A     54  32  43 MISG        N/A
LENORA KS        N/A     53  32  45 MISG        N/A
SHARON SPRINGS   N/A     50  49  95 MISG        N/A
KIT CARSON CO    N/A     48  45  91 MISG        N/A
$$



USA.gov is the U.S. government's official web portal to all federal, state and local government web resources and services.